INTELSAT 901 (IS-901) (26824 NORAD) Tracking and Keplerian Element Data

This shows tracking and keplerian element data for the satellite.

Feedback or suggestion? Click here.




ElementValue
Catalog26824
NameINTELSAT 901 (IS-901)
Epoch Orbit6263
Epoch Day201.42088363
Epoch Year2018
RAAN94.644
Inclination0.3153
Eccentricity0.0002898
Argument of Perigee24.1152
Mean Anonmoly301.3821
Mean Motion1.00272376
Decay Rate-2.3E-06
L11 26824U 01024A 18201.42088363 -.00000230 00000-0 00000+0 0 9990
L22 26824 0.3153 94.6440 0002898 24.1152 301.3821 1.00272376 62638

Live tracking and technical data element details for INTELSAT 901 (IS-901) (NORAD 26824). INTELSAT 901 (IS-901) can be tracked NOW for your location showing map with azimuth and elevation plus other details from your city location.

Track the satellite on the map from your city or location and see movement details for azimuth, elevation, latitude, longitude, range, height, and movement on the map or in text.







IsCatalogInMostPopularTable: catalog: 26824, numindb: 52
Update: records affected: 1



GetName: 26824 INTELSAT 901 (IS-901)

Hit Count: updated at: Sat, 21 Jul 2018 07:58:42 GMT